This demonstration page uses our WeatherBlox Daily Observations layout. Learn more.

Left ArrowRight Arrow

Hourly Observations for April 25, 2019

Temp ( °F °C ) Dew Point ( °F °C ) Humidity (%) Winds ( mph kmh ) Pressure ( in mb ) Visibility ( mi km ) Precip ( " mm )
12:53 am 00:53 Clear 54 12.2 51 10.6 90 90 S 7 11 29.86 1011 10 16 0.00 0.00
1:53 am 01:53 Clear 53 11.7 51 10.6 93 93 S 3 6 29.86 1011 10 16 0.00 0.00
2:53 am 02:53 Clear 52 11.1 50 10 93 93 SSW 5 7 29.84 1011 7 11 0.00 0.00
3:53 am 03:53 Clear with Mist and Fog 50 10 49 9.4 96 96 W 7 11 29.83 1010 5 8 0.00 0.00
4:53 am 04:53 Clear with Mist and Fog 49 9.4 47 8.3 93 93 Calm 29.83 1010 5 8 0.00 0.00
5:53 am 05:53 Clear with Mist and Fog 48 8.9 46 7.8 93 93 ENE 3 6 29.84 1011 6 10 0.00 0.00
6:53 am 06:53 Clear 47 8.3 45 7.2 93 93 Calm 29.85 1011 7 11 0.00 0.00
7:53 am 07:53 Sunny with Mist and Fog 49 9.4 47 8.3 93 93 Calm 29.87 1012 5 8 0.00 0.00
8:53 am 08:53 Sunny with Mist and Fog 55 12.8 53 11.7 93 93 Calm 29.89 1012 5 8 0.00 0.00
9:53 am 09:53 Sunny 63 17.2 52 11.1 68 68 VRB 3 6 29.88 1012 10 16 0.00 0.00
10:53 am 10:53 Sunny 70 21.1 51 10.6 51 51 SW 7 11 29.88 1012 10 16 0.00 0.00
11:53 am 11:53 Sunny 76 24.4 49 9.4 39 39 VRB 5 7 29.88 1012 10 16 0.00 0.00
12:53 pm 12:53 Sunny 81 27.2 42 5.6 25 25 W 7 11 29.87 1012 10 16 0.00 0.00
1:53 pm 13:53 Sunny 83 28.3 45 7.2 26 26 W 5 7 29.86 1011 10 16 0.00 0.00
2:53 pm 14:53 Sunny 87 30.6 41 5 20 20 ESE 3 6 29.85 1011 10 16 0.00 0.00
3:53 pm 15:53 Sunny 87 30.6 36 2.2 16 16 VRB 3 6 29.85 1011 10 16 0.00 0.00
4:53 pm 16:53 Sunny 88 31.1 34 1.1 15 15 ESE 6 9 29.84 1011 10 16 0.00 0.00
5:53 pm 17:53 Sunny 88 31.1 35 1.7 15 15 E 6 9 29.85 1011 10 16 0.00 0.00
6:53 pm 18:53 Sunny 87 30.6 35 1.7 16 16 ESE 7 11 29.86 1011 10 16 0.00 0.00
7:53 pm 19:53 Sunny 84 28.9 41 5 22 22 E 6 9 29.87 1011 10 16 0.00 0.00
8:53 pm 20:53 Clear 75 23.9 48 8.9 39 39 ENE 7 11 29.90 1013 10 16 0.00 0.00
9:53 pm 21:53 Clear 73 22.8 47 8.3 40 40 E 10 17 29.93 1014 10 16 0.00 0.00
10:53 pm 22:53 Clear 70 21.1 51 10.6 51 51 ENE 10 17 29.96 1015 10 16 0.00 0.00
11:53 pm 23:53 Clear 68 20 53 11.7 59 59 ENE 10 17 29.97 1015 10 16 0.00 0.00

Powered by AerisWeather